GW6176 Weather Reports


Display with metric or nautical units.
time (UTC)temp
F
wind
direction
speed
MPH
gust
MPH
rain 1hr
in
rain 24hr
in
rain mn
in
humidity
%
barometer
mb
20260504201747 76 217 21.0 23.0 0.00 0.00 0.00 44 1002.9
20260504201244 75 212 21.0 25.0 0.00 0.00 0.00 44 1003.2
20260504200742 76 234 15.0 31.0 0.00 0.00 0.00 44 1003.3
20260504200237 76 221 10.0 27.0 0.00 0.00 0.00 44 1003.2
20260504195734 75 215 26.0 27.0 0.00 0.00 0.00 45 1003.3
20260504195230 75 202 19.0 26.0 0.00 0.00 0.00 44 1003.6
20260504194727 75 213 14.0 27.0 0.00 0.00 0.00 45 1003.3
20260504194223 75 210 19.0 21.0 0.00 0.00 0.00 45 1003.9
20260504193720 74 215 30.0 40.0 0.00 0.00 0.00 44 1003.8
20260504193218 75 217 20.0 32.0 0.00 0.00 0.00 44 1004.1
20260504192716 74 219 23.0 28.0 0.00 0.00 0.00 44 1004.1
20260504192213 75 202 24.0 35.0 0.00 0.00 0.00 44 1004.0
20260504191712 75 206 12.0 26.0 0.00 0.00 0.00 45 1003.9
20260504191208 75 210 13.0 27.0 0.00 0.00 0.00 46 1003.9
20260504190703 75 207 21.0 37.0 0.00 0.00 0.00 44 1003.7
20260504190200 75 235 19.0 27.0 0.00 0.00 0.00 46 1003.9
20260504185657 75 187 14.0 29.0 0.00 0.00 0.00 46 1003.9
20260504185153 75 220 21.0 28.0 0.00 0.00 0.00 46 1003.6
20260504184649 74 199 17.0 24.0 0.00 0.00 0.00 47 1004.2
20260504184144 74 210 23.0 26.0 0.00 0.00 0.00 46 1004.0
20260504183642 74 206 14.0 29.0 0.00 0.00 0.00 48 1004.2
20260504183139 74 183 15.0 24.0 0.00 0.00 0.00 48 1004.0
20260504182637 74 197 16.0 25.0 0.00 0.00 0.00 49 1004.2
20260504182134 73 219 17.0 25.0 0.00 0.00 0.00 49 1004.3
20260504181631 74 208 22.0 27.0 0.00 0.00 0.00 49 1004.1
20260504181129 73 176 16.0 28.0 0.00 0.00 0.00 51 1004.4
20260504180628 73 215 13.0 23.0 0.00 0.00 0.00 51 1004.3
20260504180126 73 207 15.0 24.0 0.00 0.00 0.00 51 1004.2
20260504175623 73 216 15.0 29.0 0.00 0.00 0.00 49 1004.3
20260504175120 73 195 11.0 26.0 0.00 0.00 0.00 49 1004.4
20260504174618 72 182 10.0 26.0 0.00 0.00 0.00 51 1004.4
20260504174114 73 206 9.0 15.0 0.00 0.00 0.00 52 1004.7
20260504173611 71 156 10.0 25.0 0.00 0.00 0.00 51 1004.7
20260504173109 72 193 7.0 16.0 0.00 0.00 0.00 53 1004.9
20260504172605 71 186 10.0 19.0 0.00 0.00 0.00 51 1004.7
20260504172102 71 217 13.0 20.0 0.00 0.00 0.00 51 1005.0
20260504171558 71 180 11.0 23.0 0.00 0.00 0.00 52 1005.1
20260504171055 70 214 9.0 14.0 0.00 0.00 0.00 51 1005.3
20260504170551 71 204 12.0 19.0 0.00 0.00 0.00 50 1005.4
20260504150935 66 212 9.0 12.0 0.00 0.00 0.00 54 1006.6
20260504150432 66 221 10.0 14.0 0.00 0.00 0.00 53 1006.5
20260504140858 62 217 9.0 13.0 0.00 0.00 0.00 60 1006.9
20260504140354 61 222 11.0 12.0 0.00 0.00 0.00 60 1007.0
20260504130319 57 191 7.0 12.0 0.00 0.00 0.00 66 1007.4
20260504120243 54 189 7.0 10.0 0.00 0.00 0.00 69 1007.6
20260504110710 50 182 6.0 9.0 0.00 0.00 0.00 75 1007.3
20260504110206 50 179 4.0 9.0 0.00 0.00 0.00 75 1007.7
20260504100130 50 181 4.0 7.0 0.00 0.00 0.00 74 1007.2
20260504081523 49 178 5.0 9.0 0.00 0.00 0.00 77 1007.8
20260504081019 48 174 4.0 8.0 0.00 0.00 0.00 77 1008.0
20260504080516 48 170 4.0 8.0 0.00 0.00 0.00 77 1007.9
20260504050334 49 168 4.0 8.0 0.00 0.00 0.00 75 1009.7
20260504045832 49 150 4.0 7.0 0.00 0.00 0.00 75 1009.9
20260504045332 49 162 5.0 9.0 0.00 0.00 0.00 75 1010.2
20260504044829 49 158 6.0 9.0 0.00 0.00 0.00 75 1009.7
20260504044326 49 149 6.0 11.0 0.00 0.00 0.00 75 1009.9
20260504043824 49 144 6.0 12.0 0.00 0.00 0.00 75 1010.1
20260504043320 49 161 3.0 9.0 0.00 0.00 0.00 75 1009.9
20260504042818 49 162 5.0 10.0 0.00 0.00 0.00 75 1010.0
20260504042314 49 155 5.0 6.0 0.00 0.00 0.00 75 1010.1
20260504041810 49 158 5.0 8.0 0.00 0.00 0.00 75 1010.3
20260504041306 49 148 5.0 6.0 0.00 0.00 0.00 75 1010.1
20260504040803 49 153 4.0 6.0 0.00 0.00 0.00 75 1010.2
20260504040300 49 167 6.0 8.0 0.00 0.00 0.00 76 1010.3
20260504035756 49 175 4.0 7.0 0.00 0.00 0.00 76 1010.2
20260504035254 49 156 5.0 7.0 0.00 0.00 0.00 76 1010.3
20260504034751 48 171 9.0 10.0 0.00 0.00 0.00 77 1010.3
20260504034248 48 178 4.0 6.0 0.00 0.00 0.00 77 1010.5
20260504033745 48 147 4.0 7.0 0.00 0.00 0.00 77 1010.5
20260504033243 48 147 6.0 9.0 0.00 0.00 0.00 78 1010.6
20260504032740 48 151 3.0 5.0 0.00 0.00 0.00 78 1010.8
20260504032237 48 139 4.0 7.0 0.00 0.00 0.00 78 1010.7
20260504031733 48 158 5.0 6.0 0.00 0.00 0.00 78 1010.6
20260504031231 48 167 4.0 7.0 0.00 0.00 0.00 79 1010.7
20260504030726 48 139 6.0 7.0 0.00 0.00 0.00 79 1010.6
20260504030224 48 146 4.0 8.0 0.00 0.00 0.00 79 1010.7
20260504025720 48 127 7.0 7.0 0.00 0.00 0.00 79 1010.8
20260504025217 48 153 6.0 9.0 0.00 0.00 0.00 79 1010.7
20260504024714 48 142 6.0 9.0 0.00 0.00 0.00 79 1011.0
20260504024211 48 147 6.0 11.0 0.00 0.00 0.00 78 1011.0
20260504023708 48 140 7.0 13.0 0.00 0.00 0.00 78 1011.0
20260504023203 48 137 7.0 11.0 0.00 0.00 0.00 78 1011.1
20260504022700 48 154 3.0 8.0 0.00 0.00 0.00 78 1011.0
20260504022156 48 148 7.0 11.0 0.00 0.00 0.00 78 1011.0
20260504021654 49 152 8.0 9.0 0.00 0.00 0.00 78 1011.2
20260504021150 49 172 6.0 12.0 0.00 0.00 0.00 77 1011.2
20260504020647 49 141 7.0 10.0 0.00 0.00 0.00 77 1011.0
20260504020143 49 156 9.0 9.0 0.00 0.00 0.00 77 1011.1
20260504015640 49 164 11.0 13.0 0.00 0.00 0.00 77 1011.1
20260504015137 49 163 4.0 11.0 0.00 0.00 0.00 76 1011.0
20260504014632 49 169 5.0 10.0 0.00 0.00 0.00 76 1011.0
20260504014130 49 164 7.0 11.0 0.00 0.00 0.00 75 1011.1
20260504013627 49 156 5.0 9.0 0.00 0.00 0.00 75 1010.9
20260504013124 50 142 6.0 11.0 0.00 0.00 0.00 74 1011.0
20260504012621 50 135 9.0 11.0 0.00 0.00 0.00 74 1011.3
20260504012120 50 107 4.0 15.0 0.00 0.00 0.00 73 1011.0
20260504011616 50 155 13.0 17.0 0.00 0.00 0.00 74 1011.2
20260504011112 50 161 7.0 13.0 0.00 0.00 0.00 73 1011.2
20260504010608 50 149 7.0 8.0 0.00 0.00 0.00 73 1011.1
20260504010104 50 139 6.0 12.0 0.00 0.00 0.00 73 1011.2
20260504005601 50 179 6.0 13.0 0.00 0.00 0.00 73 1011.2
20260504005058 50 155 6.0 13.0 0.00 0.00 0.00 73 1011.2
20260504004556 50 153 5.0 12.0 0.00 0.00 0.00 74 1011.1
20260504004053 50 156 6.0 13.0 0.00 0.00 0.00 74 1011.1
20260504003549 50 137 10.0 15.0 0.00 0.00 0.00 74 1011.4
20260504003046 50 156 9.0 16.0 0.00 0.00 0.00 74 1011.2
20260504002542 50 180 6.0 10.0 0.00 0.00 0.00 74 1011.4
20260504002040 50 145 7.0 10.0 0.00 0.00 0.00 74 1011.4
20260504001538 50 164 6.0 12.0 0.00 0.00 0.00 74 1011.3
20260504001034 50 157 8.0 10.0 0.00 0.00 0.00 75 1011.5
20260504000531 50 149 6.0 13.0 0.00 0.00 0.00 74 1011.4
20260504000029 50 154 9.0 15.0 0.00 0.00 0.00 74 1011.7
20260503235527 50 128 7.0 10.0 0.00 0.00 0.00 74 1011.7
20260503235023 50 143 5.0 17.0 0.00 0.00 0.00 73 1011.8
20260503234521 50 151 9.0 14.0 0.00 0.00 0.00 73 1011.9
20260503234019 50 172 7.0 14.0 0.00 0.00 0.00 72 1011.8
20260503233515 50 148 5.0 16.0 0.00 0.00 0.00 72 1011.9
20260503233011 50 176 9.0 14.0 0.00 0.00 0.00 72 1011.9
20260503232508 50 170 5.0 12.0 0.00 0.00 0.00 72 1011.8
20260503232006 50 140 15.0 18.0 0.00 0.00 0.00 72 1011.9
20260503231504 51 137 10.0 16.0 0.00 0.00 0.00 72 1012.2
20260503231000 51 185 10.0 12.0 0.00 0.00 0.00 71 1012.0
20260503230456 51 128 10.0 17.0 0.00 0.00 0.00 72 1012.1
20260503225954 50 151 15.0 17.0 0.00 0.00 0.00 73 1012.2
20260503225450 50 142 11.0 14.0 0.00 0.00 0.00 74 1012.4
20260503224946 50 175 6.0 14.0 0.00 0.00 0.00 74 1012.1
20260503224443 50 162 10.0 12.0 0.00 0.00 0.00 75 1012.4
20260503223941 50 145 10.0 11.0 0.00 0.00 0.00 75 1012.4
20260503223439 50 147 14.0 15.0 0.00 0.00 0.00 75 1012.3
20260503222934 50 143 9.0 16.0 0.00 0.00 0.00 75 1012.6
20260503222433 50 175 9.0 9.0 0.00 0.00 0.00 75 1012.6
20260503221931 50 147 7.0 14.0 0.00 0.00 0.00 75 1012.7
20260503221429 50 205 7.0 13.0 0.00 0.00 0.00 76 1012.6
20260503220925 50 164 6.0 14.0 0.00 0.00 0.00 76 1012.8
20260503220421 50 199 6.0 11.0 0.00 0.00 0.00 75 1012.8
20260503215919 50 173 10.0 15.0 0.00 0.00 0.00 75 1012.5
20260503215416 50 138 8.0 11.0 0.00 0.00 0.00 75 1012.5
20260503214913 50 190 4.0 12.0 0.00 0.00 0.00 74 1012.9
20260503214410 50 130 8.0 11.0 0.00 0.00 0.00 74 1012.9
20260503213908 50 172 11.0 14.0 0.00 0.00 0.00 73 1012.9
20260503213406 50 180 12.0 16.0 0.00 0.00 0.00 73 1012.8
20260503212902 50 180 6.0 20.0 0.00 0.00 0.00 72 1012.9
20260503212400 50 185 9.0 18.0 0.00 0.00 0.00 72 1013.1
20260503211857 50 176 7.0 16.0 0.00 0.00 0.00 72 1013.5
20260503211353 50 196 10.0 17.0 0.00 0.00 0.00 71 1013.5
20260503210848 50 212 8.0 17.0 0.00 0.00 0.00 72 1013.8
20260503210346 51 186 9.0 11.0 0.00 0.00 0.00 70 1013.9
20260503205841 51 222 11.0 19.0 0.00 0.00 0.00 69 1013.8
20260503205338 51 212 12.0 23.0 0.00 0.00 0.00 67 1014.1
20260503204834 52 214 18.0 28.0 0.00 0.00 0.00 66 1014.3
20260503204332 52 215 12.0 27.0 0.00 0.00 0.00 66 1014.2
20260503203829 52 235 14.0 24.0 0.00 0.00 0.00 66 1014.4
20260503203326 52 235 11.0 20.0 0.00 0.00 0.00 66 1014.4
20260503202823 52 216 18.0 29.0 0.00 0.00 0.00 64 1014.3
20260503202321 53 243 12.0 25.0 0.00 0.00 0.00 65 1014.5